Weather History for Oscoda, MI

Change the Weather History Date:

Wednesday, November 21, 2012

  Actual Average Record
Temperature  
Mean Temperature 39 °F -  
Max Temperature 53 °F 42 °F 53 °F (2012)
Min Temperature 25 °F 29 °F 5 °F (2014)
Degree Days  
Heating Degree Days 26    
Moisture  
Dew Point 36 °F    
Average Humidity 87    
Maximum Humidity 99    
Minimum Humidity 65    
Precipitation  
Precipitation 0.00 in - - ()
Sea Level Pressure  
Sea Level Pressure 30.14 in    
Wind  
Wind Speed 3 mph (SSW)    
Max Wind Speed 14 mph    
Max Gust Speed 16 mph    
Visibility 4 miles    
Events Fog    
Averages and records for this station are not official NWS values.
T = Trace of Precipitation, MM = Missing Value Source: NWS Daily Summary

Daily Weather History Graph

Daily Weather History Graph

Search for Another Location

Airport:

Trip Planner

Search our weather history database for the weather conditions in past years. The results will help you decide how hot, cold, wet, or windy it might be!

Date:

Astronomy

Nov. 21, 2012 Rise Set
Actual Time 7:38 AM EST 5:00 PM EST
Civil Twilight 7:06 AM EST 5:32 PM EST
Nautical Twilight 6:30 AM EST 6:08 PM EST
Astronomical Twilight 5:55 AM EST 6:42 PM EST
Moon 1:29 PM EST (11/21) 12:41 AM EST (11/21)
Length of Visible Light 10h 26m
Length of Day
9h 22m
First Quarter, 61% of the Moon is Illuminated
Nov 21
First Quarter
Nov 28
Full
Dec 6
Last Quarter
Dec 13
New
Dec 20
First Quarter

Hourly Weather History & Observations

Time (EST) Temp. Windchill Dew Point Humidity Pressure Visibility Wind Dir Wind Speed Gust Speed Precip Events Conditions
12:14 AM 28.2 °F - 27.7 °F 98% 30.14 in 0.2 mi Calm Calm - N/A Fog Light Freezing Fog
12:34 AM 27.9 °F - 27.3 °F 98% 30.14 in 0.8 mi Calm Calm - N/A   Overcast
12:54 AM 26.8 °F 22.8 °F 25.9 °F 96% 30.14 in 7.0 mi West 3.5 mph - N/A   Mostly Cloudy
1:14 AM 26.4 °F - 25.5 °F 96% 30.15 in 0.5 mi Calm Calm - N/A Fog Light Freezing Fog
1:34 AM 29.8 °F - 29.3 °F 98% 30.15 in 2.5 mi Calm Calm - N/A   Scattered Clouds
1:54 AM 30.9 °F - 30.4 °F 98% 30.15 in 2.5 mi Calm Calm - N/A   Clear
2:14 AM 28.2 °F - 27.1 °F 96% 30.15 in 5.0 mi Calm Calm - N/A   Clear
2:34 AM 27.7 °F - 26.6 °F 96% 30.16 in 0.8 mi Calm Calm - N/A   Mostly Cloudy
2:54 AM 28.8 °F - 27.5 °F 95% 30.16 in 4.0 mi Calm Calm - N/A   Scattered Clouds
3:14 AM 27.9 °F - 25.9 °F 92% 30.16 in 7.0 mi Calm Calm - N/A   Mostly Cloudy
3:34 AM 27.3 °F - 26.2 °F 96% 30.16 in 0.2 mi Calm Calm - N/A Fog Light Freezing Fog
3:54 AM 27.5 °F - 26.8 °F 97% 30.15 in 0.2 mi Calm Calm - N/A Fog Light Freezing Fog
4:14 AM 27.0 °F - 26.4 °F 98% 30.15 in 0.2 mi Calm Calm - N/A Fog Light Freezing Fog
4:34 AM 25.5 °F - 25.3 °F 99% 30.16 in 0.2 mi Calm Calm - N/A Fog Light Freezing Fog
4:54 AM 25.7 °F - 25.5 °F 99% 30.16 in 0.2 mi Calm Calm - N/A Fog Light Freezing Fog
5:14 AM 28.0 °F 24.2 °F 27.7 °F 99% 30.17 in 0.2 mi NW 3.5 mph - N/A Fog Light Freezing Fog
5:33 AM 26.2 °F - 25.9 °F 99% 30.18 in 0.2 mi Calm Calm - N/A Fog Light Freezing Fog
5:54 AM 25.9 °F - 25.5 °F 99% 30.18 in 0.2 mi Calm Calm - N/A Fog Light Freezing Fog
6:14 AM 25.3 °F - 24.8 °F 98% 30.18 in 0.2 mi Calm Calm - N/A Fog Light Freezing Fog
6:33 AM 25.3 °F - 25.0 °F 99% 30.18 in 0.2 mi Calm Calm - N/A Fog Light Freezing Fog
6:54 AM 26.4 °F - 26.1 °F 99% 30.18 in 0.2 mi Calm Calm - N/A Fog Light Freezing Fog
7:14 AM 28.4 °F - 28.0 °F 99% 30.18 in 2.0 mi Calm Calm - N/A   Overcast
7:33 AM 30.2 °F - 29.7 °F 98% 30.20 in 3.0 mi Calm Calm - N/A   Overcast
7:54 AM 31.3 °F - 30.9 °F 99% 30.20 in 2.0 mi Calm Calm - N/A   Overcast
8:14 AM 32.0 °F - 31.6 °F 99% 30.20 in 2.0 mi Calm Calm - N/A   Overcast
8:34 AM 32.9 °F - 32.2 °F 97% 30.20 in 2.5 mi Calm Calm - N/A   Overcast
8:54 AM 34.7 °F - 34.0 °F 97% 30.19 in 2.5 mi Calm Calm - N/A   Overcast
9:14 AM 35.6 °F - 34.9 °F 97% 30.20 in 2.5 mi Calm Calm - N/A   Overcast
9:34 AM 37.4 °F - 36.5 °F 97% 30.21 in 3.0 mi Calm Calm - N/A   Overcast
9:54 AM 38.3 °F - 37.4 °F 97% 30.20 in 4.0 mi Calm Calm - N/A   Overcast
10:14 AM 39.2 °F - 37.9 °F 95% 30.20 in 4.0 mi Calm Calm - N/A   Overcast
10:34 AM 41.2 °F 39.2 °F 39.9 °F 95% 30.20 in 4.0 mi SW 3.5 mph - N/A   Overcast
10:54 AM 42.8 °F 40.1 °F 40.8 °F 93% 30.20 in 5.0 mi SW 4.6 mph - N/A   Overcast
11:14 AM 45.0 °F 41.8 °F 41.9 °F 89% 30.19 in 7.0 mi SSW 5.8 mph - N/A   Overcast
11:34 AM 46.0 °F 43.9 °F 41.9 °F 85% 30.18 in 7.0 mi South 4.6 mph - N/A   Overcast
11:54 AM 47.8 °F - 42.3 °F 81% 30.18 in 7.0 mi South 6.9 mph - N/A   Overcast
12:14 PM 50.9 °F - 42.8 °F 74% 30.16 in 10.0 mi SSW 5.8 mph - N/A   Scattered Clouds
12:34 PM 51.8 °F - 42.3 °F 70% 30.16 in 10.0 mi SSW 11.5 mph - N/A   Clear
12:54 PM 52.5 °F - 42.1 °F 68% 30.16 in 10.0 mi SW 13.8 mph - N/A   Clear
1:14 PM 52.7 °F - 42.1 °F 67% 30.15 in 10.0 mi SSW 11.5 mph - N/A   Clear
1:34 PM 52.2 °F - 41.9 °F 68% 30.14 in 10.0 mi South 9.2 mph - N/A   Clear
1:54 PM 52.7 °F - 42.1 °F 67% 30.13 in 7.0 mi SSW 11.5 mph - N/A   Clear
2:14 PM 53.4 °F - 42.1 °F 65% 30.12 in 7.0 mi South 11.5 mph - N/A   Clear
2:34 PM 53.2 °F - 41.9 °F 65% 30.12 in 7.0 mi SSW 9.2 mph 16.1 mph N/A   Clear
2:54 PM 53.1 °F - 42.1 °F 66% 30.12 in 10.0 mi SSW 10.4 mph - N/A   Clear
3:14 PM 52.5 °F - 42.1 °F 68% 30.12 in 7.0 mi SSW 10.4 mph - N/A   Clear
3:34 PM 51.8 °F - 41.9 °F 69% 30.12 in 7.0 mi South 9.2 mph - N/A   Clear
3:54 PM 51.1 °F - 41.7 °F 70% 30.11 in 7.0 mi South 8.1 mph - N/A   Clear
4:14 PM 50.0 °F - 41.4 °F 72% 30.10 in 7.0 mi South 9.2 mph - N/A   Clear
4:34 PM 49.3 °F - 41.0 °F 73% 30.10 in 5.0 mi SSW 9.2 mph - N/A   Haze
4:59 PM 48.2 °F - 40.8 °F 76% 30.10 in 5.0 mi SSW 9.2 mph - N/A   Haze
5:14 PM 47.3 °F - 40.5 °F 77% 30.11 in 5.0 mi SSW 6.9 mph - N/A   Haze
5:34 PM 45.5 °F 42.5 °F 40.1 °F 81% 30.10 in 7.0 mi South 5.8 mph - N/A   Clear
5:54 PM 46.0 °F 43.1 °F 40.3 °F 80% 30.10 in 7.0 mi South 5.8 mph - N/A   Clear
6:14 PM 45.5 °F 41.8 °F 40.3 °F 82% 30.10 in 5.0 mi South 6.9 mph - N/A   Haze
6:34 PM 45.1 °F 41.4 °F 40.1 °F 82% 30.10 in 7.0 mi SSW 6.9 mph - N/A   Clear
6:53 PM 45.1 °F 41.4 °F 40.3 °F 83% 30.10 in 7.0 mi SSW 6.9 mph - N/A   Clear
7:14 PM 44.8 °F 41.0 °F 40.1 °F 84% 30.10 in 5.0 mi South 6.9 mph - N/A   Haze
7:34 PM 45.7 °F 40.6 °F 40.5 °F 82% 30.09 in 7.0 mi South 10.4 mph - N/A   Clear
7:53 PM 46.4 °F 41.9 °F 40.5 °F 80% 30.09 in 7.0 mi SSW 9.2 mph - N/A   Clear
8:14 PM 45.9 °F 41.7 °F 40.5 °F 81% 30.09 in 5.0 mi SSW 8.1 mph - N/A   Haze
8:34 PM 44.8 °F 40.4 °F 40.3 °F 84% 30.09 in 5.0 mi SSW 8.1 mph - N/A   Haze
8:54 PM 44.6 °F 40.2 °F 40.3 °F 85% 30.08 in 5.0 mi SSW 8.1 mph - N/A   Haze
9:14 PM 44.8 °F 40.4 °F 40.3 °F 84% 30.08 in 5.0 mi SSW 8.1 mph - N/A   Haze
9:34 PM 45.0 °F 40.1 °F 40.8 °F 85% 30.07 in 5.0 mi South 9.2 mph - N/A   Clear
9:54 PM 45.1 °F 39.9 °F 41.0 °F 85% 30.07 in 5.0 mi SSW 10.4 mph - N/A   Clear
10:14 PM 44.1 °F 40.1 °F 40.3 °F 87% 30.06 in 5.0 mi South 6.9 mph - N/A   Clear
10:34 PM 43.9 °F 39.3 °F 40.6 °F 88% 30.06 in 5.0 mi South 8.1 mph - N/A   Clear
10:54 PM 45.0 °F 39.7 °F 41.4 °F 87% 30.05 in 5.0 mi SSW 10.4 mph - N/A   Clear
11:14 PM 45.1 °F 39.9 °F 41.4 °F 87% 30.04 in 5.0 mi SSW 10.4 mph - N/A   Clear
11:34 PM 44.8 °F 39.0 °F 41.0 °F 87% 30.04 in 5.0 mi SSW 11.5 mph - N/A   Clear
11:54 PM 44.2 °F 37.6 °F 41.0 °F 88% 30.04 in 4.0 mi SSW 13.8 mph - N/A   Clear